Погода в Мге

Россия / Санкт-Петербург и Ленинградская область     59°45′09″N   31°03′21″E
темп.,
°C
ветер,
м/с
пор.,
м/с
влажн.,
%
обл.,
%
осадки,
мм/ч
давл.,
гПа
погр.,
м
7 марта, вс
вс700:00−1зюз61396100 2.0 9911040
03:00−1зюз31185100 4.9 989791
06:00−4з51376100 0.3 9871331
09:00−7зсз5117183 0.6 9881283
12:00−6зсз587233 0.0 9891157
15:00−5сз488667 0.8 990931
18:00−6зсз51176100 0.1 991908
21:00−7сз51384100 0.1 993857
8 марта, пн
пн800:00−8с61191100 0.5 996948
03:00−9с61290100 1.1 1000906
06:00−10с61189100 0.3 1003857
09:00−12ссв51088100 0.4 1006655
12:00−11с5984100 0.1 1009610
15:00−10с4884100 0.1 1012622
18:00−12с3790100 0.1 1014617
21:00−13с2696100 0.1 1016313
9 марта, вт
вт900:00−15ссв2497100 0.1 1017157
03:00−18ссв129668 0.1 101854
06:00−19св129645 0.0 101959
09:00−19св139255 0.0 1020196
12:00−15св23720 0.0 1021390
15:00−13св23710 0.0 1022482
18:00−15св25870 0.0 1021213
21:00−18всв25940 0.0 1023155
10 марта, ср
ср1000:00−19в25940 0.0 1024132
03:00−20в25940 0.0 1024126
06:00−20в24930 0.0 1025113
09:00−18в23840 0.0 1026136
12:00−13всв247266 0.0 1026312
15:00−10в256983 0.0 1026451
18:00−12всв2485100 0.0 1025159
21:00−15в249195 0.0 102571
11 марта, чт
чт1100:00−15вюв269226 0.0 1024140
03:00−16вюв388813 0.0 1023168
06:00−16вюв39830 0.0 1021228
09:00−15юв411760 0.0 1019347
12:00−10юв49784 0.0 1017527
15:00−7ююв498147 0.0 1013633
18:00−7ююв41188100 0.0 1009611
21:00−5ююв61590100 0.1 1004694